"Pseudo-MPEC" for P1169xO

Created 2020 Sep 18 11:07:40 UT using Find_Orb

Click here for an explanation of pseudo-MPECs

 
 Astrometry: 
     P1169xO  C2020 09 13'ckgDa\sg!fChjZFaHd6tvP[s^_1j,m.wZR^LqlI_d9s1TAOEoKuF52
     P1169xO  C2020 09 13PEZi0$vW2ske2aE^XkaqVjg/eTZB)eg=TQB*/.Xsjr(tdiF@C6a,F52
     P1169xO  C2020 09 15.38451 00 47 17.20 -12 40 56.9    ~9GMb 20.9 GVNEOCPG96
     P1169xO  C2020 09 15.38964 00 47 17.52 -12 40 43.0    ~9GMb 21.3 GVNEOCPG96
     P1169xO  C2020 09 15.39479 00 47 17.92 -12 40 30.9    ~9GMb 20.9 GVNEOCPG96
     P1169xO  C2020 09 15W:6yD!@a0r]n[lL5?pQ8RALv?]Kr:f/n0d4KN`cwu/I1Nt@LBvHHF51
     P1169xO  C2020 09 15Lg?/87$$rhe`:m!#jv2na:h$5Astrometryne#8)BGBY%FZQ5yl)F51
     P1169xO  C2020 09 15Fm`7CL++@McUA=A^tYAZcP`ddkS=]6cPvTtH9YBfvxb9sh,A*f_4F51
     P1169xO  C2020 09 15#RrVo/lY`Bg4D'GfmC/67/$C+cdDQDG*p#yI2@ETredacted;C'UF51
     P1169xO ^C2020 09 16.33899100 48 35.542-12 00 53.62   ~9GM7 21.34GVNEOCP568
     P1169xO ^C2020 09 16.34088700 48 35.669-12 00 49.04   ~9GM7 21.36GVNEOCP568
     P1169xO ^C2020 09 16.34183200 48 35.738-12 00 46.73   ~9GM7 21.36GVNEOCP568
     P1169xO  C2020 09 16.41403 00 48 38.48 -11 57 54.2    ~9GAb 21.2 GVNEOCPV06
     P1169xO  C2020 09 16.41720 00 48 38.71 -11 57 45.6    ~9GAb 22.0 GVNEOCPV06
     P1169xO  C2020 09 16.42037 00 48 38.88 -11 57 37.8    ~9GAb 22.0 GVNEOCPV06
     P1169xO  C2020 09 16.42354 00 48 39.09 -11 57 29.5    ~9GAb 21.6 GVNEOCPV06
     P1169xO  C2020 09 16/Nx(^h?Gm=R0click[vaYwkPE0#here1P1^El9/A77Y%0L'36cRvF52
     P1169xO  C2020 09 16aw;B6?Tfu?JA2cP-TAf3Ql:3%*OC\K*ZQEVgd-:^15pt?#(`Cpk5F52
     P1169xO  C2020 09 160$onT8QYBe1AAR``:DK5nF.K(nnx9]bRWLDb+@MpbH#Hb=,hkThyF52
     P1169xO  C2020 09 16%KGsI`WfXcw*._j(f:j4qlw4H]W98El=p9ktT:2e7qMP;0/TP'G'F52
     P1169xO  C2020 09 17oI?L=1r/(B#spWO0C;GnBwc,9saDb%o1xvN/H^8j;eaL;KI0sRJ'F52
     P1169xO  C2020 09 179T.bu$stT)`AlU--'HYP2,H0*W(^WDm?@Kmn%ow'/sMZ5E\HOnTxF52
     P1169xO  C2020 09 172\jG@GEgAelh3K7for1R^ZIcqlH%explanationjZCLJDGLj4G/'F52

Station data:
(568) Mauna Kea  (N19.826116 W155.472200)  US/Hawaii.
(F51) Pan-STARRS 1, Haleakala  (N20.707235 W156.255910)  US/Hawaii.
   Observers N. Primak, A. Schultz, S. Watters, J. Thiel, T. Goggia. Measurer
   PS1 Science Consortium. 1.8-m Ritchey-Chrétien + CCD.
(F52) Pan-STARRS 2, Haleakala  (N20.707384 W156.255910)  US/Hawaii. 1.8-m
   Ritchey-Chrétien + CCD.
(G96) Mt. Lemmon Survey  (N32.442754 W110.788720)  US/Arizona.  Observers T.
   A. Pruyne, B. M. Africano, E. J. Christensen, G. A. Farneth, D. C. Fuls,
   A. R. Gibbs, A. D. Grauer, H. Gröller, J. A. Johnson, R. A. Kowalski, S.
   M. Larson, G. J. Leonard, D. Rankin, R. L. Seaman, F. C. Shelly. 1.5-m
   reflector + 10K CCD.
(V06) Catalina Sky Survey-Kuiper  (N32.416847 W110.732550)  US/Arizona.
   Observers T. A. Pruyne, B. M. Africano, E. J. Christensen, G. A. Farneth,
   D. C. Fuls, A. R. Gibbs, A. D. Grauer, H. Gröller, J. A. Johnson, R. A.
   Kowalski, S. M. Larson, G. J. Leonard, D. Rankin, R. L. Seaman, F. C.
   Shelly. 1.55-m reflector + CCD.

Orbital elements:  P1169xO
   Perihelion 2020 Sep 19.017132 +/- 0.049 TT =  0:24:40 (JD 2459111.517132)
Epoch 2020 Sep 17.0 TT = JDT 2459109.5   Earth MOID: 0.2060   AutoNEOCP
M 359.48707466 +/- 0.014            (J2000 ecliptic)
n   0.25428451 +/- 0.0033           Peri.  337.67259 +/- 0.059
a   2.46749398 +/- 0.0213           Node    20.39636 +/- 0.015
e   0.5117961 +/- 0.00373           Incl.    6.52366 +/- 0.035
P   3.88                   H 24.0   G  0.15   U  8.9  
q 1.20463999 +/- 0.00124    Q 3.73034798 +/- 0.0419
From 23 observations 2020 Sept. 13-17; mean residual 0".26
Residuals in arcseconds: 
200913 F52  .13-  .32+    200915 F51  .08+  .07+    200916 F52  .09-  .06+    
200913 F52  .19-  .09-    200916 568  .19-  .22+    200916 F52  .13-  .12+    
200915 G96  .04+  .93-    200916 568  .20-  .09+    200916 F52  .22-  .15-    
200915 G96  .21-  .16+    200916 568  .12-  .05+    200916 F52  .11+  .09+    
200915 G96  .67+  .61-    200916 V06  .07+  .28-    200917 F52  .08-  .41-    
200915 F51  .17+  .34+    200916 V06  .47+  .26+    200917 F52  .19-  .21+    
200915 F51  .16+  .22+    200916 V06  .02-  .01-    200917 F52  .10-  .08+    
200915 F51  .00   .02+    200916 V06  .07+  .22+    

Ephemerides (geocentric):
Date (UTC) HH   RA              Dec         delta   r     elong  mag " sig PA
---- -- -- --  -------------   -----------  ------ ------ -----  --- ---- ---
2020 09 18 11  00 51 13.929   -10 30 08.18  .20920 1.2047 161.2 21.8 .451 120
2020 09 18 12  00 51 16.974   -10 28 20.04  .20918 1.2047 161.2 21.8 .461 120
2020 09 18 13  00 51 20.014   -10 26 31.84  .20916 1.2047 161.2 21.8 .472 119
2020 09 18 14  00 51 23.051   -10 24 43.60  .20914 1.2046 161.3 21.8 .484 119
2020 09 18 15  00 51 26.083   -10 22 55.30  .20913 1.2046 161.3 21.8 .495 119
2020 09 18 16  00 51 29.111   -10 21 06.95  .20911 1.2046 161.3 21.8 .506 118
2020 09 18 17  00 51 32.135   -10 19 18.55  .20909 1.2046 161.3 21.8 .518 118
2020 09 18 18  00 51 35.154   -10 17 30.09  .20907 1.2046 161.4 21.8 .530 118
2020 09 18 19  00 51 38.170   -10 15 41.59  .20906 1.2046 161.4 21.8 .542 117
2020 09 18 20  00 51 41.181   -10 13 53.04  .20904 1.2046 161.4 21.8 .554 117
2020 09 18 21  00 51 44.189   -10 12 04.44  .20902 1.2046 161.5 21.8 .566 117
2020 09 18 22  00 51 47.192   -10 10 15.79  .20901 1.2046 161.5 21.8 .578 116
2020 09 18 23  00 51 50.191   -10 08 27.08  .20899 1.2046 161.5 21.8 .591 116
2020 09 19 00  00 51 53.186   -10 06 38.33  .20898 1.2046 161.5 21.8 .603 116
2020 09 19 01  00 51 56.177   -10 04 49.53  .20896 1.2046 161.6 21.8 .616 115
2020 09 19 02  00 51 59.163   -10 03 00.68  .20894 1.2046 161.6 21.8 .629 115
2020 09 19 03  00 52 02.146   -10 01 11.79  .20893 1.2046 161.6 21.8 .642 115
2020 09 19 04  00 52 05.124   -09 59 22.84  .20891 1.2046 161.7 21.8 .655 115
2020 09 19 05  00 52 08.098   -09 57 33.85  .20890 1.2046 161.7 21.8 .668 114
2020 09 19 06  00 52 11.069   -09 55 44.81  .20888 1.2046 161.7 21.8 .682 114
2020 09 19 07  00 52 14.035   -09 53 55.72  .20887 1.2046 161.7 21.8 .695 114
2020 09 19 08  00 52 16.997   -09 52 06.58  .20886 1.2046 161.8 21.8 .709 114
2020 09 19 09  00 52 19.954   -09 50 17.40  .20884 1.2046 161.8 21.8 .723 113
2020 09 19 10  00 52 22.908   -09 48 28.17  .20883 1.2046 161.8 21.8 .737 113
2020 09 19 11  00 52 25.858   -09 46 38.89  .20881 1.2047 161.8 21.8 .751 113
2020 09 19 12  00 52 28.803   -09 44 49.57  .20880 1.2047 161.9 21.8 .765 113
2020 09 19 13  00 52 31.745   -09 43 00.20  .20879 1.2047 161.9 21.8 .779 113
2020 09 19 14  00 52 34.682   -09 41 10.79  .20877 1.2047 161.9 21.8 .794 112
2020 09 19 15  00 52 37.616   -09 39 21.33  .20876 1.2047 162.0 21.8 .809 112
2020 09 19 16  00 52 40.545   -09 37 31.82  .20875 1.2047 162.0 21.8 .823 112
2020 09 19 17  00 52 43.470   -09 35 42.27  .20874 1.2047 162.0 21.8 .838 112
2020 09 19 18  00 52 46.391   -09 33 52.68  .20872 1.2047 162.0 21.8 .853 112
2020 09 19 19  00 52 49.308   -09 32 03.04  .20871 1.2047 162.1 21.8 .868 112
2020 09 19 20  00 52 52.221   -09 30 13.36  .20870 1.2047 162.1 21.8 .884 111
2020 09 19 21  00 52 55.130   -09 28 23.63  .20869 1.2047 162.1 21.8 .899 111
2020 09 19 22  00 52 58.035   -09 26 33.86  .20868 1.2047 162.2 21.8 .914 111
2020 09 19 23  00 53 00.936   -09 24 44.05  .20867 1.2047 162.2 21.8 .930 111
2020 09 20 00  00 53 03.832   -09 22 54.19  .20866 1.2047 162.2 21.8 .946 111
2020 09 20 01  00 53 06.725   -09 21 04.29  .20865 1.2047 162.2 21.8 .962 111
2020 09 20 02  00 53 09.614   -09 19 14.34  .20864 1.2047 162.3 21.8 .978 111
2020 09 20 03  00 53 12.499   -09 17 24.36  .20862 1.2047 162.3 21.8 0.99 110
2020 09 20 04  00 53 15.379   -09 15 34.33  .20861 1.2047 162.3 21.8 1.01 110
2020 09 20 05  00 53 18.256   -09 13 44.26  .20861 1.2047 162.4 21.8 1.03 110
2020 09 20 06  00 53 21.128   -09 11 54.15  .20860 1.2047 162.4 21.8 1.04 110
2020 09 20 07  00 53 23.997   -09 10 04.00  .20859 1.2047 162.4 21.8 1.06 110
2020 09 20 08  00 53 26.861   -09 08 13.80  .20858 1.2047 162.4 21.8 1.08 110
2020 09 20 09  00 53 29.722   -09 06 23.57  .20857 1.2047 162.5 21.8 1.09 110
2020 09 20 10  00 53 32.578   -09 04 33.29  .20856 1.2047 162.5 21.8 1.11 109